Location: Lugrin
(46.4033°N, 6.6674°E)
Time: 17:14:21
(UTC+00:00)

Cosmos 1428 Rocket - Pass Details

Date: 18 September 2020
Orbit: 947 x 989 km, 82.9° (Epoch: 29 October)

Event Time Altitude Azimuth Distance (km) Brightness Sun altitude
Rises 20:08:54 0° 351° (N) 3,703 8.1 -25.4°
Reaches altitude 10° 20:11:26 10° 352° (N) 2,747 7.3 -25.8°
Maximum altitude 20:17:45 87° 81° (E) 983 4.4 -26.7°
Enters shadow 20:18:53 63° 166° (SSE) 1,082 4.4 -26.8°
